Location: Chmeln�
(49.6483°N, 14.9871°E)
Time: 08:08:22
(UTC+00:00)

Cosmos 1805 - Pass Details

Date: 18 September 2020
Orbit: 524 x 531 km, 82.5° (Epoch: 24 October)

Event Time Altitude Azimuth Distance (km) Brightness Sun altitude
Exits shadow 19:00:26 39° 72° (ENE) 813 3.8 -18.7°
Drops below altitude 10° 19:03:39 10° 23° (NNE) 1,793 6.0 -19.1°
Sets 19:05:53 0° 16° (NNE) 2,689 7.0 -19.5°
